| time (UTC) | temp F | wind direction | speed MPH | gust MPH | rain 1hr in | rain 24hr in | rain mn in | humidity % | barometer mb |
| 20260505220040 | 55 | 112 | 0.0 | 0.0 | 0.00 | 0.35 | 0.00 | 92 | 1012.8 |
| 20260505214536 | 55 | 112 | 0.0 | 0.0 | 0.00 | 0.35 | 0.35 | 92 | 1013.1 |
| 20260505213035 | 55 | 112 | 0.0 | 2.0 | 0.00 | 0.35 | 0.35 | 92 | 1013.2 |
| 20260505211534 | 55 | 112 | 0.0 | 1.0 | 0.00 | 0.35 | 0.35 | 92 | 1013.3 |
| 20260505210031 | 55 | 112 | 0.0 | 0.0 | 0.00 | 0.35 | 0.35 | 92 | 1013.4 |
| 20260505204533 | 55 | 112 | 0.0 | 0.0 | 0.00 | 0.35 | 0.35 | 92 | 1013.4 |
| 20260505203034 | 55 | 112 | 0.0 | 1.0 | 0.00 | 0.35 | 0.35 | 92 | 1013.3 |
| 20260505201534 | 55 | 112 | 0.0 | 0.0 | 0.00 | 0.35 | 0.35 | 92 | 1013.2 |
| 20260505200029 | 55 | 112 | 0.0 | 0.0 | 0.00 | 0.35 | 0.35 | 92 | 1013.2 |
| 20260505194529 | 55 | 112 | 0.0 | 0.0 | 0.01 | 0.35 | 0.35 | 92 | 1013.2 |
| 20260505193031 | 55 | 112 | 0.0 | 0.0 | 0.01 | 0.35 | 0.35 | 91 | 1013.2 |
| 20260505191528 | 55 | 112 | 0.0 | 0.0 | 0.01 | 0.35 | 0.35 | 91 | 1013.0 |
| 20260505190036 | 55 | 112 | 0.0 | 6.0 | 0.01 | 0.35 | 0.35 | 89 | 1013.0 |
| 20260505184530 | 56 | 112 | 0.0 | 1.0 | 0.00 | 0.35 | 0.35 | 89 | 1012.7 |
| 20260505183028 | 56 | 116 | 0.0 | 0.0 | 0.00 | 0.35 | 0.35 | 89 | 1012.8 |
| 20260505181626 | 56 | 115 | 0.0 | 4.0 | 0.00 | 0.35 | 0.35 | 88 | 1012.6 |
| 20260505180034 | 56 | 117 | 0.0 | 7.0 | 0.00 | 0.35 | 0.35 | 87 | 1012.7 |
| 20260505174523 | 56 | 116 | 0.0 | 1.0 | 0.00 | 0.35 | 0.35 | 86 | 1012.7 |
| 20260505173023 | 56 | 116 | 0.0 | 2.0 | 0.00 | 0.35 | 0.35 | 86 | 1012.8 |
| 20260505171524 | 57 | 106 | 0.0 | 6.0 | 0.00 | 0.35 | 0.35 | 86 | 1012.8 |
| 20260505170021 | 57 | 123 | 0.0 | 11.0 | 0.00 | 0.35 | 0.35 | 83 | 1012.8 |
| 20260505164523 | 58 | 126 | 0.0 | 3.0 | 0.00 | 0.35 | 0.35 | 82 | 1012.9 |
| 20260505163020 | 58 | 126 | 0.0 | 0.0 | 0.00 | 0.35 | 0.35 | 82 | 1012.9 |
| 20260505161520 | 58 | 126 | 0.0 | 1.0 | 0.00 | 0.35 | 0.35 | 81 | 1012.9 |
| 20260505153022 | 58 | 84 | 0.0 | 6.0 | 0.00 | 0.35 | 0.35 | 80 | 1013.0 |
| 20260505151519 | 59 | 95 | 0.0 | 4.0 | 0.00 | 0.35 | 0.35 | 80 | 1012.9 |
| 20260505124508 | 57 | 73 | 0.0 | 0.0 | 0.00 | 0.35 | 0.35 | 84 | 1013.5 |
| 20260505123007 | 57 | 73 | 0.0 | 3.0 | 0.00 | 0.35 | 0.35 | 85 | 1013.6 |
| 20260505121506 | 57 | 73 | 0.0 | 3.0 | 0.00 | 0.35 | 0.35 | 85 | 1013.7 |
| 20260505120006 | 56 | 74 | 0.0 | 3.0 | 0.00 | 0.35 | 0.35 | 85 | 1013.6 |
| 20260505114505 | 56 | 124 | 0.0 | 1.0 | 0.00 | 0.35 | 0.35 | 87 | 1013.7 |
| 20260505113006 | 56 | 125 | 0.0 | 6.0 | 0.00 | 0.35 | 0.35 | 88 | 1013.7 |
| 20260505111513 | 56 | 125 | 0.0 | 1.0 | 0.00 | 0.35 | 0.35 | 90 | 1013.9 |
| 20260505101501 | 56 | 310 | 0.0 | 2.0 | 0.00 | 0.35 | 0.35 | 92 | 1014.2 |
| 20260505094600 | 55 | 301 | 0.0 | 3.0 | 0.00 | 0.35 | 0.35 | 89 | 1014.1 |
| 20260505093059 | 55 | 299 | 0.0 | 0.0 | 0.00 | 0.35 | 0.35 | 89 | 1014.1 |
| 20260505091620 | 55 | 299 | 0.0 | 0.0 | 0.00 | 0.35 | 0.35 | 89 | 1014.2 |
| 20260505090122 | 55 | 299 | 0.0 | 0.0 | 0.00 | 0.35 | 0.35 | 89 | 1014.0 |
| 20260505084614 | 54 | 299 | 0.0 | 0.0 | 0.00 | 0.35 | 0.35 | 89 | 1013.8 |
| 20260505083110 | 54 | 299 | 0.0 | 1.0 | 0.00 | 0.35 | 0.35 | 90 | 1013.8 |
| 20260505081603 | 54 | 299 | 0.0 | 0.0 | 0.00 | 0.35 | 0.35 | 91 | 1013.7 |
| 20260505074554 | 54 | 299 | 0.0 | 0.0 | 0.00 | 0.35 | 0.35 | 92 | 1013.9 |
| 20260505073059 | 54 | 299 | 0.0 | 0.0 | 0.01 | 0.35 | 0.35 | 93 | 1013.9 |
| 20260505071612 | 53 | 299 | 0.0 | 0.0 | 0.02 | 0.35 | 0.35 | 93 | 1014.1 |
| 20260505070053 | 53 | 299 | 0.0 | 0.0 | 0.04 | 0.35 | 0.35 | 94 | 1014.2 |
| 20260505064549 | 53 | 299 | 0.0 | 0.0 | 0.06 | 0.35 | 0.35 | 93 | 1014.3 |
| 20260505063052 | 53 | 299 | 0.0 | 0.0 | 0.09 | 0.34 | 0.34 | 93 | 1014.4 |
| 20260505061547 | 52 | 299 | 0.0 | 0.0 | 0.13 | 0.33 | 0.33 | 92 | 1014.5 |
| 20260505060058 | 52 | 299 | 0.0 | 0.0 | 0.12 | 0.31 | 0.31 | 92 | 1014.5 |
| 20260505054546 | 52 | 299 | 0.0 | 0.0 | 0.12 | 0.28 | 0.28 | 92 | 1014.4 |
| 20260505053046 | 52 | 299 | 0.0 | 1.0 | 0.10 | 0.24 | 0.24 | 91 | 1014.4 |
| 20260505051548 | 52 | 299 | 0.0 | 1.0 | 0.09 | 0.20 | 0.20 | 91 | 1014.3 |
| 20260505041551 | 53 | 299 | 0.0 | 0.0 | 0.08 | 0.12 | 0.12 | 91 | 1014.4 |
| 20260505040041 | 53 | 299 | 0.0 | 0.0 | 0.06 | 0.09 | 0.09 | 91 | 1014.4 |
| 20260505034538 | 53 | 299 | 0.0 | 0.0 | 0.05 | 0.07 | 0.07 | 90 | 1014.5 |
| 20260505033036 | 53 | 299 | 0.0 | 0.0 | 0.03 | 0.06 | 0.06 | 88 | 1014.5 |
| 20260505031534 | 53 | 299 | 0.0 | 0.0 | 0.02 | 0.04 | 0.04 | 87 | 1014.4 |
| 20260505030031 | 53 | 299 | 0.0 | 0.0 | 0.02 | 0.03 | 0.03 | 87 | 1014.5 |
| 20260505024529 | 54 | 299 | 0.0 | 0.0 | 0.01 | 0.02 | 0.02 | 86 | 1014.7 |
| 20260505023028 | 54 | 299 | 0.0 | 0.0 | 0.02 | 0.02 | 0.02 | 85 | 1014.8 |
| 20260505021525 | 54 | 299 | 0.0 | 0.0 | 0.02 | 0.02 | 0.02 | 86 | 1015.1 |
| 20260505020033 | 54 | 299 | 0.0 | 0.0 | 0.02 | 0.02 | 0.02 | 84 | 1015.2 |
| 20260505014531 | 55 | 299 | 0.0 | 0.0 | 0.02 | 0.02 | 0.02 | 83 | 1015.4 |
| 20260505013018 | 55 | 299 | 0.0 | 0.0 | 0.01 | 0.01 | 0.01 | 81 | 1015.6 |
| 20260505011514 | 56 | 299 | 0.0 | 0.0 | 0.00 | 0.00 | 0.00 | 80 | 1015.8 |
| 20260505010009 | 56 | 300 | 0.0 | 0.0 | 0.00 | 0.00 | 0.00 | 78 | 1015.9 |
| 20260505004508 | 57 | 300 | 0.0 | 0.0 | 0.00 | 0.00 | 0.00 | 74 | 1016.2 |
| 20260505003004 | 57 | 300 | 0.0 | 0.0 | 0.00 | 0.00 | 0.00 | 71 | 1016.3 |
| 20260505001502 | 58 | 300 | 0.0 | 0.0 | 0.00 | 0.00 | 0.00 | 66 | 1016.4 |
| 20260505000107 | 59 | 300 | 0.0 | 0.0 | 0.00 | 0.00 | 0.00 | 66 | 1016.5 |
| 20260504234555 | 59 | 300 | 0.0 | 0.0 | 0.00 | 0.00 | 0.00 | 60 | 1016.6 |
| 20260504233057 | 59 | 300 | 0.0 | 6.0 | 0.00 | 0.00 | 0.00 | 59 | 1016.9 |
| 20260504231553 | 60 | 300 | 0.0 | 5.0 | 0.00 | 0.00 | 0.00 | 57 | 1017.0 |
| 20260504230050 | 60 | 311 | 0.0 | 5.0 | 0.00 | 0.00 | 0.00 | 57 | 1017.3 |
| 20260504224549 | 60 | 287 | 1.0 | 5.0 | 0.00 | 0.00 | 0.00 | 58 | 1017.4 |
| 20260504223101 | 60 | 286 | 1.0 | 8.0 | 0.00 | 0.00 | 0.00 | 57 | 1017.4 |
| 20260504221545 | 59 | 286 | 1.0 | 9.0 | 0.00 | 0.00 | 0.00 | 60 | 1017.4 |